owner,sensor,date,latitude,longitude,vertical_datum,wind_speed,wind_to_direction,wind_speed_of_gust,qcFlag 
WAVCIS,ioos:station:WAVCIS:CSI15:1,2009-01-01T00:00:00Z,28.8332,-90.8320,10.0,9.51,7.0,,'11111222,11111222,99999999' 
WAVCIS,ioos:station:WAVCIS:CSI15:1,2009-01-01T01:00:00Z,28.8332,-90.8320,10.0,9.33,7.0,,'11111222,11111222,99999999' 
WAVCIS,ioos:station:WAVCIS:CSI15:1,2009-01-01T02:00:00Z,28.8332,-90.8320,10.0,9.5,4.0,,'11111222,11111222,99999999' 
WAVCIS,ioos:station:WAVCIS:CSI15:1,2009-01-01T03:00:00Z,28.8332,-90.8320,10.0,10.64,11.0,,'11111222,11111222,99999999' 
WAVCIS,ioos:station:WAVCIS:CSI15:1,2009-01-01T04:00:00Z,28.8332,-90.8320,10.0,10.82,17.0,,'11111222,11111222,99999999' 
WAVCIS,ioos:station:WAVCIS:CSI15:1,2009-01-01T05:00:00Z,28.8332,-90.8320,10.0,10.13,22.0,,'11111222,11111222,99999999' 
WAVCIS,ioos:station:WAVCIS:CSI15:1,2009-01-01T06:00:00Z,28.8332,-90.8320,10.0,9.66,31.0,,'11111222,11111222,99999999' 
WAVCIS,ioos:station:WAVCIS:CSI15:1,2009-01-01T07:00:00Z,28.8332,-90.8320,10.0,10.02,35.0,,'11111222,11111222,99999999' 
WAVCIS,ioos:station:WAVCIS:CSI15:1,2009-01-01T08:00:00Z,28.8332,-90.8320,10.0,9.57,45.0,,'11111222,11111222,99999999' 
WAVCIS,ioos:station:WAVCIS:CSI15:1,2009-01-01T09:00:00Z,28.8332,-90.8320,10.0,9.58,56.0,,'11111222,11111222,99999999' 
WAVCIS,ioos:station:WAVCIS:CSI15:1,2009-01-01T10:00:00Z,28.8332,-90.8320,10.0,9.71,57.0,,'11111222,11111222,99999999' 
WAVCIS,ioos:station:WAVCIS:CSI15:1,2009-01-01T11:00:00Z,28.8332,-90.8320,10.0,8.91,60.0,,'11111222,11111222,99999999' 
WAVCIS,ioos:station:WAVCIS:CSI15:1,2009-01-01T12:00:00Z,28.8332,-90.8320,10.0,8.32,65.0,,'11111222,11111222,99999999' 
WAVCIS,ioos:station:WAVCIS:CSI15:1,2009-01-01T13:00:00Z,28.8332,-90.8320,10.0,9.34,62.0,,'11111222,11111222,99999999' 
WAVCIS,ioos:station:WAVCIS:CSI15:1,2009-01-01T14:00:00Z,28.8332,-90.8320,10.0,7.9,59.0,,'11111222,11111222,99999999' 
WAVCIS,ioos:station:WAVCIS:CSI15:1,2009-01-01T15:00:00Z,28.8332,-90.8320,10.0,8.2,62.0,,'11111222,11111222,99999999' 
WAVCIS,ioos:station:WAVCIS:CSI15:1,2009-01-01T16:00:00Z,28.8332,-90.8320,10.0,7.29,72.0,,'11111222,11111222,99999999' 
WAVCIS,ioos:station:WAVCIS:CSI15:1,2009-01-01T17:00:00Z,28.8332,-90.8320,10.0,4.849,77.0,,'11111222,11111222,99999999' 
WAVCIS,ioos:station:WAVCIS:CSI15:1,2009-01-01T18:00:00Z,28.8332,-90.8320,10.0,5.222,126.0,,'11111222,11111222,99999999' 
WAVCIS,ioos:station:WAVCIS:CSI15:1,2009-01-01T19:00:00Z,28.8332,-90.8320,10.0,2.663,76.0,,'11111222,11111222,99999999' 
WAVCIS,ioos:station:WAVCIS:CSI15:1,2009-01-01T20:00:00Z,28.8332,-90.8320,10.0,2.306,67.0,,'11111222,11111222,99999999' 
WAVCIS,ioos:station:WAVCIS:CSI15:1,2009-01-01T21:00:00Z,28.8332,-90.8320,10.0,3.418,83.0,,'11111222,11111222,99999999' 
WAVCIS,ioos:station:WAVCIS:CSI15:1,2009-01-01T22:00:00Z,28.8332,-90.8320,10.0,3.674,94.0,,'11111222,11111222,99999999' 
WAVCIS,ioos:station:WAVCIS:CSI15:1,2009-01-01T23:00:00Z,28.8332,-90.8320,10.0,4.408,78.0,,'11111222,11111222,99999999' 
WAVCIS,ioos:station:WAVCIS:CSI15:1,2009-01-02T00:00:00Z,28.8332,-90.8320,10.0,5.413,81.0,,'11111222,11111222,99999999' 
WAVCIS,ioos:station:WAVCIS:CSI15:1,2009-01-02T01:00:00Z,28.8332,-90.8320,10.0,5.606,81.0,,'11111222,11111222,99999999' 
WAVCIS,ioos:station:WAVCIS:CSI15:1,2009-01-02T02:00:00Z,28.8332,-90.8320,10.0,6.362,90.0,,'11111222,11111222,99999999' 
WAVCIS,ioos:station:WAVCIS:CSI15:1,2009-01-02T03:00:00Z,28.8332,-90.8320,10.0,6.776,95.0,,'11111222,11111222,99999999' 
WAVCIS,ioos:station:WAVCIS:CSI15:1,2009-01-02T04:00:00Z,28.8332,-90.8320,10.0,7.22,108.0,,'11111222,11111222,99999999' 
WAVCIS,ioos:station:WAVCIS:CSI15:1,2009-01-02T05:00:00Z,28.8332,-90.8320,10.0,7.43,111.0,,'11111222,11111222,99999999' 
WAVCIS,ioos:station:WAVCIS:CSI15:1,2009-01-02T06:00:00Z,28.8332,-90.8320,10.0,7.2,116.0,,'11111222,11111222,99999999' 
WAVCIS,ioos:station:WAVCIS:CSI15:1,2009-01-02T07:00:00Z,28.8332,-90.8320,10.0,6.038,141.0,,'11111222,11111222,99999999' 
WAVCIS,ioos:station:WAVCIS:CSI15:1,2009-01-02T08:00:00Z,28.8332,-90.8320,10.0,5.546,166.0,,'11111222,11111222,99999999' 
WAVCIS,ioos:station:WAVCIS:CSI15:1,2009-01-02T09:00:00Z,28.8332,-90.8320,10.0,3.559,187.0,,'11111222,11111222,99999999' 
WAVCIS,ioos:station:WAVCIS:CSI15:1,2009-01-02T10:00:00Z,28.8332,-90.8320,10.0,4.124,186.0,,'11111222,11111222,99999999' 
WAVCIS,ioos:station:WAVCIS:CSI15:1,2009-01-02T11:00:00Z,28.8332,-90.8320,10.0,4.865,190.0,,'11111222,11111222,99999999' 
WAVCIS,ioos:station:WAVCIS:CSI15:1,2009-01-02T12:00:00Z,28.8332,-90.8320,10.0,4.427,185.0,,'11111222,11111222,99999999' 
WAVCIS,ioos:station:WAVCIS:CSI15:1,2009-01-02T13:00:00Z,28.8332,-90.8320,10.0,5.63,156.0,,'11111222,11111222,99999999' 
WAVCIS,ioos:station:WAVCIS:CSI15:1,2009-01-02T14:00:00Z,28.8332,-90.8320,10.0,4.25,174.0,,'11111222,11111222,99999999' 
WAVCIS,ioos:station:WAVCIS:CSI15:1,2009-01-02T15:00:00Z,28.8332,-90.8320,10.0,3.524,145.0,,'11111222,11111222,99999999' 
WAVCIS,ioos:station:WAVCIS:CSI15:1,2009-01-02T16:00:00Z,28.8332,-90.8320,10.0,4.481,148.0,,'11111222,11111222,99999999' 
WAVCIS,ioos:station:WAVCIS:CSI15:1,2009-01-02T17:00:00Z,28.8332,-90.8320,10.0,5.438,140.0,,'11111222,11111222,99999999' 
WAVCIS,ioos:station:WAVCIS:CSI15:1,2009-01-02T18:00:00Z,28.8332,-90.8320,10.0,5.127,153.0,,'11111222,11111222,99999999' 
WAVCIS,ioos:station:WAVCIS:CSI15:1,2009-01-02T19:00:00Z,28.8332,-90.8320,10.0,5.067,164.0,,'11111222,11111222,99999999' 
WAVCIS,ioos:station:WAVCIS:CSI15:1,2009-01-02T20:00:00Z,28.8332,-90.8320,10.0,4.661,166.0,,'11111222,11111222,99999999' 
WAVCIS,ioos:station:WAVCIS:CSI15:1,2009-01-02T21:00:00Z,28.8332,-90.8320,10.0,3.744,176.0,,'11111222,11111222,99999999' 
WAVCIS,ioos:station:WAVCIS:CSI15:1,2009-01-02T22:00:00Z,28.8332,-90.8320,10.0,4.482,169.0,,'11111222,11111222,99999999' 
WAVCIS,ioos:station:WAVCIS:CSI15:1,2009-01-02T23:00:00Z,28.8332,-90.8320,10.0,5.628,158.0,,'11111222,11111222,99999999' 
WAVCIS,ioos:station:WAVCIS:CSI15:1,2009-01-03T00:00:00Z,28.8332,-90.8320,10.0,5.575,149.0,,'11111222,11111222,99999999' 
WAVCIS,ioos:station:WAVCIS:CSI15:1,2009-01-03T01:00:00Z,28.8332,-90.8320,10.0,5.746,152.0,,'11111222,11111222,99999999' 
WAVCIS,ioos:station:WAVCIS:CSI15:1,2009-01-03T02:00:00Z,28.8332,-90.8320,10.0,6.107,153.0,,'11111222,11111222,99999999' 
WAVCIS,ioos:station:WAVCIS:CSI15:1,2009-01-03T03:00:00Z,28.8332,-90.8320,10.0,6.324,149.0,,'11111222,11111222,99999999' 
WAVCIS,ioos:station:WAVCIS:CSI15:1,2009-01-03T04:00:00Z,28.8332,-90.8320,10.0,6.835,147.0,,'11111222,11111222,99999999' 
WAVCIS,ioos:station:WAVCIS:CSI15:1,2009-01-03T05:00:00Z,28.8332,-90.8320,10.0,5.845,142.0,,'11111222,11111222,99999999' 
WAVCIS,ioos:station:WAVCIS:CSI15:1,2009-01-03T06:00:00Z,28.8332,-90.8320,10.0,6.401,138.0,,'11111222,11111222,99999999' 
WAVCIS,ioos:station:WAVCIS:CSI15:1,2009-01-03T07:00:00Z,28.8332,-90.8320,10.0,6.818,144.0,,'11111222,11111222,99999999' 
WAVCIS,ioos:station:WAVCIS:CSI15:1,2009-01-03T08:00:00Z,28.8332,-90.8320,10.0,6.018,153.0,,'11111222,11111222,99999999' 
WAVCIS,ioos:station:WAVCIS:CSI15:1,2009-01-03T09:00:00Z,28.8332,-90.8320,10.0,7.12,153.0,,'11111222,11111222,99999999' 
WAVCIS,ioos:station:WAVCIS:CSI15:1,2009-01-03T10:00:00Z,28.8332,-90.8320,10.0,6.079,147.0,,'11111222,11111222,99999999' 
WAVCIS,ioos:station:WAVCIS:CSI15:1,2009-01-03T11:00:00Z,28.8332,-90.8320,10.0,5.093,138.0,,'11111222,11111222,99999999' 
WAVCIS,ioos:station:WAVCIS:CSI15:1,2009-01-03T12:00:00Z,28.8332,-90.8320,10.0,6.089,139.0,,'11111222,11111222,99999999' 
WAVCIS,ioos:station:WAVCIS:CSI15:1,2009-01-03T13:00:00Z,28.8332,-90.8320,10.0,5.599,146.0,,'11111222,11111222,99999999' 
WAVCIS,ioos:station:WAVCIS:CSI15:1,2009-01-03T14:00:00Z,28.8332,-90.8320,10.0,6.731,151.0,,'11111222,11111222,99999999' 
WAVCIS,ioos:station:WAVCIS:CSI15:1,2009-01-03T15:00:00Z,28.8332,-90.8320,10.0,6.496,153.0,,'11111222,11111222,99999999' 
WAVCIS,ioos:station:WAVCIS:CSI15:1,2009-01-03T16:00:00Z,28.8332,-90.8320,10.0,7.12,148.0,,'11111222,11111222,99999999' 
WAVCIS,ioos:station:WAVCIS:CSI15:1,2009-01-03T17:00:00Z,28.8332,-90.8320,10.0,7.25,139.0,,'11111222,11111222,99999999' 
WAVCIS,ioos:station:WAVCIS:CSI15:1,2009-01-03T18:00:00Z,28.8332,-90.8320,10.0,7.24,156.0,,'11111222,11111222,99999999' 
WAVCIS,ioos:station:WAVCIS:CSI15:1,2009-01-03T19:00:00Z,28.8332,-90.8320,10.0,5.067,184.0,,'11111222,11111222,99999999' 
WAVCIS,ioos:station:WAVCIS:CSI15:1,2009-01-03T20:00:00Z,28.8332,-90.8320,10.0,7.25,290.0,,'11111222,11111222,99999999' 
WAVCIS,ioos:station:WAVCIS:CSI15:1,2009-01-03T21:00:00Z,28.8332,-90.8320,10.0,6.807,120.0,,'11111222,11111222,99999999' 
WAVCIS,ioos:station:WAVCIS:CSI15:1,2009-01-03T22:00:00Z,28.8332,-90.8320,10.0,6.056,109.0,,'11111222,11111222,99999999' 
WAVCIS,ioos:station:WAVCIS:CSI15:1,2009-01-03T23:00:00Z,28.8332,-90.8320,10.0,7.09,131.0,,'11111222,11111222,99999999' 
WAVCIS,ioos:station:WAVCIS:CSI15:1,2009-01-04T00:00:00Z,28.8332,-90.8320,10.0,7.26,138.0,,'11111222,11111222,99999999' 
WAVCIS,ioos:station:WAVCIS:CSI15:1,2009-01-04T01:00:00Z,28.8332,-90.8320,10.0,8.46,150.0,,'11111222,11111222,99999999' 
WAVCIS,ioos:station:WAVCIS:CSI15:1,2009-01-04T02:00:00Z,28.8332,-90.8320,10.0,9.08,160.0,,'11111222,11111222,99999999' 
WAVCIS,ioos:station:WAVCIS:CSI15:1,2009-01-04T03:00:00Z,28.8332,-90.8320,10.0,9.03,159.0,,'11111222,11111222,99999999' 
WAVCIS,ioos:station:WAVCIS:CSI15:1,2009-01-04T04:00:00Z,28.8332,-90.8320,10.0,8.35,166.0,,'11111222,11111222,99999999' 
WAVCIS,ioos:station:WAVCIS:CSI15:1,2009-01-04T05:00:00Z,28.8332,-90.8320,10.0,7.13,162.0,,'11111222,11111222,99999999' 
WAVCIS,ioos:station:WAVCIS:CSI15:1,2009-01-04T06:00:00Z,28.8332,-90.8320,10.0,7.44,149.0,,'11111222,11111222,99999999' 
WAVCIS,ioos:station:WAVCIS:CSI15:1,2009-01-04T07:00:00Z,28.8332,-90.8320,10.0,6.432,139.0,,'11111222,11111222,99999999' 
WAVCIS,ioos:station:WAVCIS:CSI15:1,2009-01-04T08:00:00Z,28.8332,-90.8320,10.0,6.106,145.0,,'11111222,11111222,99999999' 
WAVCIS,ioos:station:WAVCIS:CSI15:1,2009-01-04T09:00:00Z,28.8332,-90.8320,10.0,6.0,133.0,,'11111222,11111222,99999999' 
WAVCIS,ioos:station:WAVCIS:CSI15:1,2009-01-04T10:00:00Z,28.8332,-90.8320,10.0,6.06,120.0,,'11111222,11111222,99999999' 
WAVCIS,ioos:station:WAVCIS:CSI15:1,2009-01-04T11:00:00Z,28.8332,-90.8320,10.0,6.148,125.0,,'11111222,11111222,99999999' 
WAVCIS,ioos:station:WAVCIS:CSI15:1,2009-01-04T12:00:00Z,28.8332,-90.8320,10.0,7.03,98.0,,'11111222,11111222,99999999' 
WAVCIS,ioos:station:WAVCIS:CSI15:1,2009-01-04T13:00:00Z,28.8332,-90.8320,10.0,5.973,98.0,,'11111222,11111222,99999999' 
WAVCIS,ioos:station:WAVCIS:CSI15:1,2009-01-04T14:00:00Z,28.8332,-90.8320,10.0,6.559,100.0,,'11111222,11111222,99999999' 
WAVCIS,ioos:station:WAVCIS:CSI15:1,2009-01-04T15:00:00Z,28.8332,-90.8320,10.0,5.74,95.0,,'11111222,11111222,99999999' 
WAVCIS,ioos:station:WAVCIS:CSI15:1,2009-01-04T16:00:00Z,28.8332,-90.8320,10.0,6.389,103.0,,'11111222,11111222,99999999' 
WAVCIS,ioos:station:WAVCIS:CSI15:1,2009-01-04T17:00:00Z,28.8332,-90.8320,10.0,6.028,106.0,,'11111222,11111222,99999999' 
WAVCIS,ioos:station:WAVCIS:CSI15:1,2009-01-04T18:00:00Z,28.8332,-90.8320,10.0,5.088,103.0,,'11111222,11111222,99999999' 
WAVCIS,ioos:station:WAVCIS:CSI15:1,2009-01-04T19:00:00Z,28.8332,-90.8320,10.0,5.143,93.0,,'11111222,11111222,99999999' 
WAVCIS,ioos:station:WAVCIS:CSI15:1,2009-01-04T20:00:00Z,28.8332,-90.8320,10.0,5.195,103.0,,'11111222,11111222,99999999' 
WAVCIS,ioos:station:WAVCIS:CSI15:1,2009-01-04T21:00:00Z,28.8332,-90.8320,10.0,5.773,109.0,,'11111222,11111222,99999999' 
WAVCIS,ioos:station:WAVCIS:CSI15:1,2009-01-04T22:00:00Z,28.8332,-90.8320,10.0,7.14,115.0,,'11111222,11111222,99999999' 
WAVCIS,ioos:station:WAVCIS:CSI15:1,2009-01-04T23:00:00Z,28.8332,-90.8320,10.0,6.103,110.0,,'11111222,11111222,99999999' 
WAVCIS,ioos:station:WAVCIS:CSI15:1,2009-01-05T00:00:00Z,28.8332,-90.8320,10.0,6.139,105.0,,'11111222,11111222,99999999' 
WAVCIS,ioos:station:WAVCIS:CSI15:1,2009-01-05T01:00:00Z,28.8332,-90.8320,10.0,4.615,101.0,,'11111222,11111222,99999999' 
WAVCIS,ioos:station:WAVCIS:CSI15:1,2009-01-05T02:00:00Z,28.8332,-90.8320,10.0,5.547,109.0,,'11111222,11111222,99999999' 
WAVCIS,ioos:station:WAVCIS:CSI15:1,2009-01-05T03:00:00Z,28.8332,-90.8320,10.0,5.076,105.0,,'11111222,11111222,99999999' 
WAVCIS,ioos:station:WAVCIS:CSI15:1,2009-01-05T04:00:00Z,28.8332,-90.8320,10.0,5.063,105.0,,'11111222,11111222,99999999' 
WAVCIS,ioos:station:WAVCIS:CSI15:1,2009-01-05T05:00:00Z,28.8332,-90.8320,10.0,4.509,119.0,,'11111222,11111222,99999999' 
WAVCIS,ioos:station:WAVCIS:CSI15:1,2009-01-05T06:00:00Z,28.8332,-90.8320,10.0,5.275,119.0,,'11111222,11111222,99999999' 
WAVCIS,ioos:station:WAVCIS:CSI15:1,2009-01-05T07:00:00Z,28.8332,-90.8320,10.0,5.627,126.0,,'11111222,11111222,99999999' 
WAVCIS,ioos:station:WAVCIS:CSI15:1,2009-01-05T08:00:00Z,28.8332,-90.8320,10.0,5.997,129.0,,'11111222,11111222,99999999' 
WAVCIS,ioos:station:WAVCIS:CSI15:1,2009-01-05T09:00:00Z,28.8332,-90.8320,10.0,4.822,126.0,,'11111222,11111222,99999999' 
WAVCIS,ioos:station:WAVCIS:CSI15:1,2009-01-05T10:00:00Z,28.8332,-90.8320,10.0,5.266,120.0,,'11111222,11111222,99999999' 
WAVCIS,ioos:station:WAVCIS:CSI15:1,2009-01-05T11:00:00Z,28.8332,-90.8320,10.0,6.513,135.0,,'11111222,11111222,99999999' 
WAVCIS,ioos:station:WAVCIS:CSI15:1,2009-01-05T12:00:00Z,28.8332,-90.8320,10.0,6.731,135.0,,'11111222,11111222,99999999' 
WAVCIS,ioos:station:WAVCIS:CSI15:1,2009-01-05T13:00:00Z,28.8332,-90.8320,10.0,4.273,124.0,,'11111222,11111222,99999999' 
WAVCIS,ioos:station:WAVCIS:CSI15:1,2009-01-05T14:00:00Z,28.8332,-90.8320,10.0,6.562,127.0,,'11111222,11111222,99999999' 
WAVCIS,ioos:station:WAVCIS:CSI15:1,2009-01-05T15:00:00Z,28.8332,-90.8320,10.0,7.5,131.0,,'11111222,11111222,99999999' 
WAVCIS,ioos:station:WAVCIS:CSI15:1,2009-01-05T16:00:00Z,28.8332,-90.8320,10.0,7.14,137.0,,'11111222,11111222,99999999' 
WAVCIS,ioos:station:WAVCIS:CSI15:1,2009-01-05T17:00:00Z,28.8332,-90.8320,10.0,7.5,145.0,,'11111222,11111222,99999999' 
WAVCIS,ioos:station:WAVCIS:CSI15:1,2009-01-05T18:00:00Z,28.8332,-90.8320,10.0,6.407,146.0,,'11111222,11111222,99999999' 
WAVCIS,ioos:station:WAVCIS:CSI15:1,2009-01-05T19:00:00Z,28.8332,-90.8320,10.0,5.572,152.0,,'11111222,11111222,99999999' 
WAVCIS,ioos:station:WAVCIS:CSI15:1,2009-01-05T20:00:00Z,28.8332,-90.8320,10.0,5.206,160.0,,'11111222,11111222,99999999' 
WAVCIS,ioos:station:WAVCIS:CSI15:1,2009-01-05T21:00:00Z,28.8332,-90.8320,10.0,6.044,150.0,,'11111222,11111222,99999999' 
WAVCIS,ioos:station:WAVCIS:CSI15:1,2009-01-05T22:00:00Z,28.8332,-90.8320,10.0,6.325,149.0,,'11111222,11111222,99999999' 
WAVCIS,ioos:station:WAVCIS:CSI15:1,2009-01-05T23:00:00Z,28.8332,-90.8320,10.0,5.734,147.0,,'11111222,11111222,99999999' 
WAVCIS,ioos:station:WAVCIS:CSI15:1,2009-01-06T00:00:00Z,28.8332,-90.8320,10.0,6.476,163.0,,'11111222,11111222,99999999' 
WAVCIS,ioos:station:WAVCIS:CSI15:1,2009-01-06T01:00:00Z,28.8332,-90.8320,10.0,6.053,169.0,,'11111222,11111222,99999999' 
WAVCIS,ioos:station:WAVCIS:CSI15:1,2009-01-06T02:00:00Z,28.8332,-90.8320,10.0,6.173,153.0,,'11111222,11111222,99999999' 
WAVCIS,ioos:station:WAVCIS:CSI15:1,2009-01-06T03:00:00Z,28.8332,-90.8320,10.0,6.937,150.0,,'11111222,11111222,99999999' 
WAVCIS,ioos:station:WAVCIS:CSI15:1,2009-01-06T04:00:00Z,28.8332,-90.8320,10.0,6.588,154.0,,'11111222,11111222,99999999' 
WAVCIS,ioos:station:WAVCIS:CSI15:1,2009-01-06T05:00:00Z,28.8332,-90.8320,10.0,8.52,149.0,,'11111222,11111222,99999999' 
WAVCIS,ioos:station:WAVCIS:CSI15:1,2009-01-06T06:00:00Z,28.8332,-90.8320,10.0,7.52,150.0,,'11111222,11111222,99999999' 
WAVCIS,ioos:station:WAVCIS:CSI15:1,2009-01-06T07:00:00Z,28.8332,-90.8320,10.0,8.21,152.0,,'11111222,11111222,99999999' 
WAVCIS,ioos:station:WAVCIS:CSI15:1,2009-01-06T08:00:00Z,28.8332,-90.8320,10.0,8.39,152.0,,'11111222,11111222,99999999' 
WAVCIS,ioos:station:WAVCIS:CSI15:1,2009-01-06T09:00:00Z,28.8332,-90.8320,10.0,8.95,156.0,,'11111222,11111222,99999999' 
WAVCIS,ioos:station:WAVCIS:CSI15:1,2009-01-06T10:00:00Z,28.8332,-90.8320,10.0,9.32,153.0,,'11111222,11111222,99999999' 
WAVCIS,ioos:station:WAVCIS:CSI15:1,2009-01-06T11:00:00Z,28.8332,-90.8320,10.0,9.96,154.0,,'11111222,11111222,99999999' 
WAVCIS,ioos:station:WAVCIS:CSI15:1,2009-01-06T12:00:00Z,28.8332,-90.8320,10.0,9.25,153.0,,'11111222,11111222,99999999' 
WAVCIS,ioos:station:WAVCIS:CSI15:1,2009-01-06T13:00:00Z,28.8332,-90.8320,10.0,8.35,154.0,,'11111222,11111222,99999999' 
WAVCIS,ioos:station:WAVCIS:CSI15:1,2009-01-06T14:00:00Z,28.8332,-90.8320,10.0,9.36,158.0,,'11111222,11111222,99999999' 
WAVCIS,ioos:station:WAVCIS:CSI15:1,2009-01-06T15:00:00Z,28.8332,-90.8320,10.0,9.03,158.0,,'11111222,11111222,99999999' 
WAVCIS,ioos:station:WAVCIS:CSI15:1,2009-01-06T16:00:00Z,28.8332,-90.8320,10.0,9.82,162.0,,'11111222,11111222,99999999' 
WAVCIS,ioos:station:WAVCIS:CSI15:1,2009-01-06T17:00:00Z,28.8332,-90.8320,10.0,10.84,157.0,,'11111222,11111222,99999999' 
WAVCIS,ioos:station:WAVCIS:CSI15:1,2009-01-06T18:00:00Z,28.8332,-90.8320,10.0,11.9,160.0,,'11111222,11111222,99999999' 
WAVCIS,ioos:station:WAVCIS:CSI15:1,2009-01-06T19:00:00Z,28.8332,-90.8320,10.0,10.01,167.0,,'11111222,11111222,99999999' 
WAVCIS,ioos:station:WAVCIS:CSI15:1,2009-01-06T20:00:00Z,28.8332,-90.8320,10.0,10.48,172.0,,'11111222,11111222,99999999' 
WAVCIS,ioos:station:WAVCIS:CSI15:1,2009-01-06T21:00:00Z,28.8332,-90.8320,10.0,10.65,177.0,,'11111222,11111222,99999999' 
WAVCIS,ioos:station:WAVCIS:CSI15:1,2009-01-06T22:00:00Z,28.8332,-90.8320,10.0,10.35,176.0,,'11111222,11111222,99999999' 
WAVCIS,ioos:station:WAVCIS:CSI15:1,2009-01-06T23:00:00Z,28.8332,-90.8320,10.0,9.1,185.0,,'11111222,11111222,99999999' 
WAVCIS,ioos:station:WAVCIS:CSI15:1,2009-01-07T00:00:00Z,28.8332,-90.8320,10.0,7.25,281.0,,'11111222,11111222,99999999' 
WAVCIS,ioos:station:WAVCIS:CSI15:1,2009-01-07T01:00:00Z,28.8332,-90.8320,10.0,7.92,272.0,,'11111222,11111222,99999999' 
WAVCIS,ioos:station:WAVCIS:CSI15:1,2009-01-07T02:00:00Z,28.8332,-90.8320,10.0,7.67,257.0,,'11111222,11111222,99999999' 
WAVCIS,ioos:station:WAVCIS:CSI15:1,2009-01-07T03:00:00Z,28.8332,-90.8320,10.0,10.67,254.0,,'11111222,11111222,99999999' 
WAVCIS,ioos:station:WAVCIS:CSI15:1,2009-01-07T04:00:00Z,28.8332,-90.8320,10.0,12.82,259.0,,'11111222,11111222,99999999' 
WAVCIS,ioos:station:WAVCIS:CSI15:1,2009-01-07T05:00:00Z,28.8332,-90.8320,10.0,11.6,255.0,,'11111222,11111222,99999999' 
WAVCIS,ioos:station:WAVCIS:CSI15:1,2009-01-07T06:00:00Z,28.8332,-90.8320,10.0,12.11,254.0,,'11111222,11111222,99999999' 
WAVCIS,ioos:station:WAVCIS:CSI15:1,2009-01-07T07:00:00Z,28.8332,-90.8320,10.0,12.79,258.0,,'11111222,11111222,99999999' 
WAVCIS,ioos:station:WAVCIS:CSI15:1,2009-01-07T08:00:00Z,28.8332,-90.8320,10.0,11.45,247.0,,'11111222,11111222,99999999' 
WAVCIS,ioos:station:WAVCIS:CSI15:1,2009-01-07T09:00:00Z,28.8332,-90.8320,10.0,14.92,251.0,,'11111222,11111222,99999999' 
WAVCIS,ioos:station:WAVCIS:CSI15:1,2009-01-07T10:00:00Z,28.8332,-90.8320,10.0,14.96,268.0,,'11111222,11111222,99999999' 
WAVCIS,ioos:station:WAVCIS:CSI15:1,2009-01-07T11:00:00Z,28.8332,-90.8320,10.0,15.86,273.0,,'11111222,11111222,99999999' 
WAVCIS,ioos:station:WAVCIS:CSI15:1,2009-01-07T12:00:00Z,28.8332,-90.8320,10.0,14.94,270.0,,'11111222,11111222,99999999' 
WAVCIS,ioos:station:WAVCIS:CSI15:1,2009-01-07T13:00:00Z,28.8332,-90.8320,10.0,14.15,290.0,,'11111222,11111222,99999999' 
WAVCIS,ioos:station:WAVCIS:CSI15:1,2009-01-07T14:00:00Z,28.8332,-90.8320,10.0,12.58,296.0,,'11111222,11111222,99999999' 
WAVCIS,ioos:station:WAVCIS:CSI15:1,2009-01-07T15:00:00Z,28.8332,-90.8320,10.0,9.6,300.0,,'11111222,11111222,99999999' 
WAVCIS,ioos:station:WAVCIS:CSI15:1,2009-01-07T16:00:00Z,28.8332,-90.8320,10.0,8.0,308.0,,'11111222,11111222,99999999' 
WAVCIS,ioos:station:WAVCIS:CSI15:1,2009-01-07T17:00:00Z,28.8332,-90.8320,10.0,3.697,327.0,,'11111222,11111222,99999999' 
WAVCIS,ioos:station:WAVCIS:CSI15:1,2009-01-07T18:00:00Z,28.8332,-90.8320,10.0,3.459,337.0,,'11111222,11111222,99999999' 
WAVCIS,ioos:station:WAVCIS:CSI15:1,2009-01-07T19:00:00Z,28.8332,-90.8320,10.0,2.283,338.0,,'11111222,11111222,99999999' 
WAVCIS,ioos:station:WAVCIS:CSI15:1,2009-01-07T20:00:00Z,28.8332,-90.8320,10.0,2.779,288.0,,'11111222,11111222,99999999' 
WAVCIS,ioos:station:WAVCIS:CSI15:1,2009-01-07T21:00:00Z,28.8332,-90.8320,10.0,3.135,216.0,,'11111222,11111222,99999999' 
WAVCIS,ioos:station:WAVCIS:CSI15:1,2009-01-07T22:00:00Z,28.8332,-90.8320,10.0,4.704,200.0,,'11111222,11111222,99999999' 
WAVCIS,ioos:station:WAVCIS:CSI15:1,2009-01-07T23:00:00Z,28.8332,-90.8320,10.0,5.159,198.0,,'11111222,11111222,99999999' 
WAVCIS,ioos:station:WAVCIS:CSI15:1,2009-01-08T00:00:00Z,28.8332,-90.8320,10.0,5.535,197.0,,'11111222,11111222,99999999' 
WAVCIS,ioos:station:WAVCIS:CSI15:1,2009-01-08T01:00:00Z,28.8332,-90.8320,10.0,5.9,202.0,,'11111222,11111222,99999999' 
WAVCIS,ioos:station:WAVCIS:CSI15:1,2009-01-08T02:00:00Z,28.8332,-90.8320,10.0,7.24,199.0,,'11111222,11111222,99999999' 
WAVCIS,ioos:station:WAVCIS:CSI15:1,2009-01-08T03:00:00Z,28.8332,-90.8320,10.0,8.19,200.0,,'11111222,11111222,99999999' 
WAVCIS,ioos:station:WAVCIS:CSI15:1,2009-01-08T04:00:00Z,28.8332,-90.8320,10.0,8.84,201.0,,'11111222,11111222,99999999' 
WAVCIS,ioos:station:WAVCIS:CSI15:1,2009-01-08T05:00:00Z,28.8332,-90.8320,10.0,8.54,210.0,,'11111222,11111222,99999999' 
WAVCIS,ioos:station:WAVCIS:CSI15:1,2009-01-08T06:00:00Z,28.8332,-90.8320,10.0,9.04,212.0,,'11111222,11111222,99999999' 
WAVCIS,ioos:station:WAVCIS:CSI15:1,2009-01-08T07:00:00Z,28.8332,-90.8320,10.0,9.11,213.0,,'11111222,11111222,99999999' 
WAVCIS,ioos:station:WAVCIS:CSI15:1,2009-01-08T08:00:00Z,28.8332,-90.8320,10.0,8.74,218.0,,'11111222,11111222,99999999' 
WAVCIS,ioos:station:WAVCIS:CSI15:1,2009-01-08T09:00:00Z,28.8332,-90.8320,10.0,7.63,225.0,,'11111222,11111222,99999999' 
WAVCIS,ioos:station:WAVCIS:CSI15:1,2009-01-08T10:00:00Z,28.8332,-90.8320,10.0,7.09,223.0,,'11111222,11111222,99999999' 
WAVCIS,ioos:station:WAVCIS:CSI15:1,2009-01-08T11:00:00Z,28.8332,-90.8320,10.0,6.568,219.0,,'11111222,11111222,99999999' 
WAVCIS,ioos:station:WAVCIS:CSI15:1,2009-01-08T12:00:00Z,28.8332,-90.8320,10.0,5.928,224.0,,'11111222,11111222,99999999' 
WAVCIS,ioos:station:WAVCIS:CSI15:1,2009-01-08T13:00:00Z,28.8332,-90.8320,10.0,5.67,221.0,,'11111222,11111222,99999999' 
WAVCIS,ioos:station:WAVCIS:CSI15:1,2009-01-08T14:00:00Z,28.8332,-90.8320,10.0,4.683,224.0,,'11111222,11111222,99999999' 
WAVCIS,ioos:station:WAVCIS:CSI15:1,2009-01-08T15:00:00Z,28.8332,-90.8320,10.0,4.779,218.0,,'11111222,11111222,99999999' 
WAVCIS,ioos:station:WAVCIS:CSI15:1,2009-01-08T16:00:00Z,28.8332,-90.8320,10.0,4.414,220.0,,'11111222,11111222,99999999' 
WAVCIS,ioos:station:WAVCIS:CSI15:1,2009-01-08T17:00:00Z,28.8332,-90.8320,10.0,4.815,231.0,,'11111222,11111222,99999999' 
WAVCIS,ioos:station:WAVCIS:CSI15:1,2009-01-08T18:00:00Z,28.8332,-90.8320,10.0,5.093,230.0,,'11111222,11111222,99999999' 
WAVCIS,ioos:station:WAVCIS:CSI15:1,2009-01-08T19:00:00Z,28.8332,-90.8320,10.0,5.032,235.0,,'11111222,11111222,99999999' 
WAVCIS,ioos:station:WAVCIS:CSI15:1,2009-01-08T20:00:00Z,28.8332,-90.8320,10.0,5.574,245.0,,'11111222,11111222,99999999' 
WAVCIS,ioos:station:WAVCIS:CSI15:1,2009-01-08T21:00:00Z,28.8332,-90.8320,10.0,5.34,250.0,,'11111222,11111222,99999999' 
WAVCIS,ioos:station:WAVCIS:CSI15:1,2009-01-08T22:00:00Z,28.8332,-90.8320,10.0,4.8,256.0,,'11111222,11111222,99999999' 
WAVCIS,ioos:station:WAVCIS:CSI15:1,2009-01-08T23:00:00Z,28.8332,-90.8320,10.0,3.969,234.0,,'11111222,11111222,99999999' 
WAVCIS,ioos:station:WAVCIS:CSI15:1,2009-01-09T00:00:00Z,28.8332,-90.8320,10.0,3.907,238.0,,'11111222,11111222,99999999' 
WAVCIS,ioos:station:WAVCIS:CSI15:1,2009-01-09T01:00:00Z,28.8332,-90.8320,10.0,3.276,230.0,,'11111222,11111222,99999999' 
WAVCIS,ioos:station:WAVCIS:CSI15:1,2009-01-09T02:00:00Z,28.8332,-90.8320,10.0,2.373,234.0,,'11111222,11111222,99999999' 
WAVCIS,ioos:station:WAVCIS:CSI15:1,2009-01-09T03:00:00Z,28.8332,-90.8320,10.0,1.824,219.0,,'11111222,11111222,99999999' 
WAVCIS,ioos:station:WAVCIS:CSI15:1,2009-01-09T04:00:00Z,28.8332,-90.8320,10.0,3.197,186.0,,'11111222,11111222,99999999' 
WAVCIS,ioos:station:WAVCIS:CSI15:1,2009-01-09T05:00:00Z,28.8332,-90.8320,10.0,3.086,182.0,,'11111222,11111222,99999999' 